Wind_Speed
11 11 13 13 12 11 11 10 10 12 12 12 11 10 9 9 9 8 8 8 8 9 9 10 11 12 13 14 15 16 17 18 19 20 20 19 20 20 19 19 18 16 15 14 13 12 11 11 11 10 9 8 7 7 7 8 8 8 7 7 8 7 7 7 8 8 8 9 9 10 11 11 12 12 13 13 15 15 15 15 16 17 17 18 18
10 11 13 14 13 12 11 10 10 11 12 12 11 10 9 8 8 7 7 6 7 7 7 8 9 10 11 12 13 14 15 16 17 18 19 19 19 19 19 18 18 17 15 14 13 12 11 11 11 10 9 9 8 8 8 9 10 10 10 10 10 9 9 9 9 10 10 11 11 12 13 13 13 14 14 15 16 16 16 17 17 18 18 18 18
13 12 13 15 13 12 12 11 10 11 12 12 11 10 9 8 8 7 6 6 5 5 5 6 7 9 10 11 12 13 13 14 15 16 17 18 18 18 18 18 17 16 16 14 13 13 12 11 10 10 9 8 8 8 8 9 10 11 11 11 11 10 10 11 11 11 12 12 13 14 15 15 15 16 16 16 17 16 17 17 18 18 18 18 18
14 14 13 15 14 13 12 11 11 11 12 12 11 10 9 9 7 7 6 5 5 4 4 4 6 7 9 9 10 11 11 12 13 14 16 17 17 17 17 17 16 16 15 15 14 13 12 12 11 11 10 10 9 9 9 9 10 10 11 11 11 11 11 12 13 13 13 14 15 17 17 17 17 17 17 17 17 17 17 17 18 17 17 17 17
14 15 14 15 15 13 12 12 11 12 13 12 12 10 10 9 8 7 6 5 5 4 2 3 4 6 7 8 9 9 10 10 11 12 14 15 16 15 16 16 16 15 15 15 14 13 13 13 13 13 12 12 11 10 10 10 11 11 11 12 12 13 14 15 16 16 17 17 18 19 19 18 17 17 17 17 17 17 17 17 16 16 16 16 15
13 16 15 15 15 14 13 13 12 12 13 12 12 11 10 10 9 8 7 6 5 4 3 2 3 5 6 7 7 8 8 9 10 11 12 13 14 14 14 15 15 15 15 14 14 13 14 14 15 15 14 14 13 13 13 13 14 14 14 15 16 16 17 18 19 19 19 19 19 19 19 18 17 17 17 17 16 16 16 15 15 14 14 14 13
13 16 16 16 15 14 14 13 12 12 13 13 12 11 10 10 10 9 8 7 6 5 4 3 3 4 4 5 6 7 7 8 9 9 10 12 12 12 12 13 14 14 14 14 13 13 14 14 15 15 15 15 16 16 16 16 17 17 17 17 18 18 18 19 19 20 19 19 19 19 18 17 17 16 16 15 15 14 14 13 13 12 12 12 11
14 17 17 16 16 15 14 14 13 13 13 13 12 11 11 10 10 9 9 8 7 6 5 4 3 3 4 4 5 5 6 7 8 8 9 10 11 11 11 12 13 13 13 13 13 13 13 13 14 14 14 15 16 16 16 17 17 17 17 17 17 17 17 18 19 19 19 19 19 19 18 17 15 15 14 14 13 12 12 11 11 10 10 9 9
15 18 18 17 17 16 15 14 14 13 13 13 12 11 11 11 10 10 9 9 8 7 6 5 3 3 3 3 4 5 5 6 7 7 8 8 9 10 9 10 11 12 12 12 12 12 12 12 13 13 13 14 15 16 16 16 16 16 16 16 16 16 16 17 17 17 18 19 18 18 17 15 14 13 12 12 11 11 10 9 8 8 7 7 7
14 18 19 18 18 17 16 15 14 14 13 13 12 11 11 11 11 10 10 9 9 8 7 5 4 3 2 2 3 4 5 5 6 6 7 7 8 8 8 9 10 10 11 11 11 11 11 11 12 12 12 13 15 15 16 16 16 16 16 15 15 15 15 15 15 15 17 17 16 16 15 13 12 11 10 9 9 8 8 7 6 5 5 5 4
14 18 20 20 19 18 17 16 15 14 13 13 12 11 11 11 11 11 10 10 9 9 8 6 5 4 3 2 2 3 4 4 5 6 6 6 7 7 7 8 8 9 9 10 10 10 10 10 11 11 12 12 14 14 15 16 16 15 15 14 14 14 13 13 14 14 14 14 13 13 12 11 10 9 8 7 7 6 6 5 4 3 2 2 2
14 18 20 20 20 19 18 17 15 15 14 13 13 12 12 11 11 11 10 10 10 9 8 7 5 4 3 2 2 2 3 4 4 5 5 6 6 6 6 6 7 8 8 9 8 9 9 9 10 10 11 11 12 13 14 14 14 14 14 13 12 12 12 11 13 13 11 11 10 10 10 8 7 6 5 5 4 4 4 3 2 2 2 2 2
13 17 18 19 20 19 18 18 17 15 14 14 13 13 12 11 11 10 10 10 10 9 8 7 6 5 4 2 2 2 2 3 4 4 4 5 5 5 5 5 6 7 7 7 7 7 8 8 8 9 10 10 11 12 13 13 12 12 12 11 10 10 10 10 11 11 9 9 8 7 7 6 5 4 3 3 3 3 3 3 3 3 4 4 4
14 16 17 19 20 20 19 18 18 16 15 15 14 13 12 11 11 10 10 10 10 9 8 7 6 5 4 3 2 1 2 2 3 3 4 4 4 4 4 4 5 6 6 6 6 6 6 7 7 7 8 9 10 10 11 11 11 10 10 9 8 8 8 8 9 8 7 6 5 5 5 4 3 3 3 3 4 4 5 5 5 6 6 6 7
15 16 17 19 20 20 20 19 19 17 16 15 15 13 12 11 10 10 10 10 9 9 8 7 7 6 5 3 2 2 1 1 2 2 2 2 3 3 3 3 4 4 5 5 5 5 5 5 5 6 6 7 8 9 8 9 9 8 8 7 6 6 6 6 7 6 5 5 4 4 4 3 3 4 4 5 5 6 7 8 8 9 9 9 9
16 16 17 18 20 20 20 20 19 18 17 15 15 14 12 11 10 10 10 9 9 9 8 7 7 6 5 4 3 2 1 1 1 1 1 1 2 2 2 3 2 3 3 3 4 4 4 4 4 4 4 5 6 6 6 6 6 6 5 5 4 4 3 4 5 4 4 4 4 4 4 4 4 5 5 5 6 6 7 8 9 10 11 11 11
16 16 17 19 19 20 20 20 19 18 17 16 15 14 12 11 10 10 9 9 9 9 8 7 7 7 6 5 4 3 2 2 1 1 1 1 1 1 2 2 2 2 2 2 3 3 3 3 2 2 2 2 3 4 4 4 4 3 3 2 2 2 2 2 2 2 3 4 4 4 5 6 6 6 6 6 6 7 7 8 9 10 11 11 12
16 16 17 19 18 19 20 20 19 18 17 16 15 14 12 11 10 10 9 9 9 9 8 8 7 7 6 6 5 4 3 3 2 2 2 2 2 1 1 1 1 1 1 1 2 2 2 2 1 0 1 1 0 2 2 2 2 2 1 0 0 1 1 1 2 3 3 4 4 5 6 7 8 8 8 8 8 8 9 9 10 10 11 11 12
16 16 17 17 17 18 19 20 20 19 17 16 15 14 12 11 11 10 10 9 9 9 8 8 7 7 7 6 5 4 4 4 3 3 4 3 3 3 2 2 2 2 3 3 2 2 2 2 2 2 2 3 3 3 3 3 3 3 3 2 2 2 2 2 3 3 4 5 6 6 7 9 9 10 9 9 10 10 10 10 11 11 11 12 12
16 16 16 16 17 18 19 20 20 19 18 16 15 14 13 12 11 10 10 9 9 8 8 8 7 7 7 7 6 5 5 4 4 5 5 5 5 4 4 4 4 4 4 4 4 4 4 4 4 4 4 4 5 6 6 6 6 6 6 6 5 5 4 4 4 5 6 6 7 8 9 10 10 11 11 11 11 11 11 11 12 12 12 12 11
16 16 16 16 18 18 19 21 20 20 18 16 15 14 13 12 11 10 10 9 8 8 8 8 8 8 8 7 6 6 5 5 6 6 6 6 6 6 6 5 6 6 6 6 6 5 6 6 6 6 7 7 7 8 8 9 9 9 9 8 8 8 7 7 7 8 8 8 9 10 10 11 12 12 12 12 12 12 12 13 13 13 13 12 11
15 15 16 17 18 19 19 21 21 20 19 17 16 14 14 13 12 11 10 9 9 9 9 9 9 9 8 8 7 7 7 7 7 7 7 7 7 7 8 7 7 7 7 7 7 7 7 8 8 8 8 9 9 10 10 11 11 11 11 11 10 11 10 10 10 10 10 11 12 12 12 12 12 13 13 13 13 13 13 13 13 13 13 13 12
14 14 15 17 18 19 20 21 21 20 19 17 16 15 14 13 12 11 10 10 10 10 10 9 9 9 9 8 8 8 8 8 8 8 8 8 8 8 9 9 9 9 9 9 9 9 9 10 10 10 11 11 11 12 13 13 13 13 13 13 12 13 12 12 12 13 12 13 13 14 13 13 13 13 14 14 14 14 14 14 14 14 13 13 12
13 13 13 16 17 18 20 21 21 20 19 18 16 15 15 14 13 12 11 11 10 11 11 10 10 10 10 10 9 9 9 9 8 8 8 8 9 9 10 10 10 10 10 10 11 11 11 11 12 12 13 13 13 13 14 15 15 15 15 15 14 14 14 14 14 14 14 14 14 14 14 14 15 15 15 16 16 16 15 15 15 15 14 14 13
13 12 13 16 16 18 20 21 21 21 19 18 16 16 15 14 13 12 12 11 11 12 12 11 11 11 11 11 10 10 9 8 8 7 8 8 9 10 10 10 11 11 11 11 12 12 13 13 14 14 14 15 15 14 15 16 17 16 16 17 16 16 16 16 16 16 16 16 16 15 15 16 16 17 17 18 18 17 16 16 16 16 15 15 14
14 14 14 16 16 17 19 20 21 20 19 17 16 16 15 14 13 13 12 13 13 13 13 12 12 12 12 11 10 9 8 7 6 6 7 8 9 10 10 11 11 11 12 12 13 13 14 15 16 16 16 17 17 17 17 17 18 19 18 18 18 17 17 18 18 18 18 18 17 16 16 17 18 18 18 19 19 18 17 17 17 17 16 15 14
15 15 15 16 17 18 19 20 20 19 18 17 17 16 16 15 14 14 14 15 15 14 14 13 13 13 12 10 9 8 7 6 5 6 6 8 8 9 10 11 11 12 12 13 13 14 15 16 17 18 18 18 18 18 18 19 20 20 20 20 19 18 18 19 19 19 19 19 19 19 18 17 18 19 19 19 19 18 17 17 17 17 16 15 14
15 15 16 17 17 18 18 19 19 19 18 17 17 17 16 16 16 16 16 16 16 15 14 14 13 12 11 10 9 8 7 6 5 6 7 8 8 9 10 11 11 11 12 12 13 14 15 16 17 18 19 19 19 19 20 20 20 21 22 22 21 20 19 19 20 20 20 20 21 20 19 18 18 19 19 19 19 19 18 17 17 17 16 14 14
16 15 16 17 18 18 17 18 18 18 18 18 18 17 17 17 17 17 17 17 16 16 14 13 12 11 10 9 8 7 6 6 6 7 8 8 8 8 9 10 10 10 11 12 12 13 14 15 17 18 19 19 19 19 20 20 21 22 22 23 23 22 21 20 20 21 22 22 22 21 21 19 18 18 19 19 19 20 20 19 17 17 16 14 13
15 15 16 17 18 18 17 17 18 18 18 18 18 18 17 17 18 17 17 17 16 14 13 12 11 11 10 9 8 6 6 7 8 8 9 9 8 9 9 9 10 10 10 11 12 13 14 15 16 17 18 18 18 18 18 20 20 21 22 23 23 23 22 21 20 21 22 23 23 22 21 20 19 19 19 18 18 20 20 20 18 16 16 14 13
16 15 16 17 17 17 17 18 18 18 18 18 18 18 18 18 17 17 16 15 14 13 12 11 10 9 9 8 6 6 7 8 9 9 9 9 9 9 9 9 10 10 10 11 11 12 14 15 15 16 17 17 17 16 17 18 19 20 21 21 22 23 22 20 20 21 22 23 23 23 23 21 21 20 19 18 18 19 20 20 19 17 15 15 13
15 15 16 16 17 17 17 18 17 17 18 18 18 17 18 17 16 15 14 14 13 12 11 9 8 8 7 6 6 6 7 8 9 9 8 9 9 9 9 9 10 10 10 10 12 12 14 15 15 15 16 15 15 15 16 17 17 18 19 20 20 21 22 21 20 20 21 23 24 24 25 24 22 21 20 19 18 18 19 20 19 17 14 14 14
16 15 16 16 16 17 17 18 17 17 17 17 17 17 17 16 15 14 13 13 12 11 9 8 7 7 6 6 6 6 8 8 8 8 8 8 8 9 9 9 9 10 10 10 11 12 13 14 14 14 14 14 15 15 15 15 16 17 17 18 19 19 20 21 21 20 21 22 23 24 25 26 24 23 21 20 19 19 19 19 19 17 14 13 13
16 16 16 16 16 17 18 17 17 17 17 17 16 16 16 15 14 13 13 12 11 10 9 8 8 7 6 6 6 7 8 7 7 6 7 7 8 9 9 9 9 10 10 11 11 12 13 13 13 13 12 13 15 15 15 14 15 16 16 16 17 19 19 20 21 21 21 21 22 23 23 25 27 25 21 20 20 19 19 18 18 18 16 13 12
17 17 16 16 16 17 18 17 17 18 18 17 16 16 15 14 14 13 13 12 11 11 10 9 8 7 6 6 7 7 6 5 5 6 6 7 8 8 9 10 10 11 11 11 12 12 12 12 13 13 12 13 14 15 15 14 14 15 15 15 16 17 18 20 21 21 21 21 22 22 22 22 24 24 22 21 20 19 19 19 18 18 17 15 13
17 17 17 16 16 17 17 17 17 18 18 17 17 16 15 14 14 13 13 12 12 11 10 9 8 7 7 7 6 6 5 4 5 5 6 7 8 9 10 10 11 11 11 11 12 12 12 12 13 13 13 13 13 14 14 14 14 14 15 14 14 15 16 18 20 21 21 21 21 22 22 21 21 22 22 22 21 19 18 19 18 17 18 17 15
18 17 17 16 16 17 17 17 18 18 18 18 17 16 15 15 14 14 13 13 12 11 10 9 8 7 7 7 5 4 4 4 4 5 6 7 8 9 10 10 11 11 11 11 12 12 12 12 13 13 13 13 13 13 13 13 13 14 14 14 14 14 15 17 18 19 20 19 19 20 22 22 21 21 22 22 22 20 19 18 18 17 17 17 16
17 17 17 16 16 17 17 17 17 18 18 18 17 17 16 15 15 14 14 13 11 10 9 8 8 7 7 6 4 3 4 4 5 5 7 8 9 9 10 10 10 11 11 11 11 12 12 12 13 14 14 13 13 13 13 13 13 13 14 14 15 15 15 16 16 17 17 17 17 18 19 21 21 21 22 21 21 21 20 18 17 17 17 17 17
16 17 17 17 17 17 17 16 16 17 18 18 17 17 16 15 14 14 13 11 10 8 8 8 8 7 6 4 3 3 3 4 5 6 7 9 10 10 10 10 10 10 10 11 11 11 11 11 12 13 13 14 13 13 14 13 14 14 14 15 15 15 15 15 16 16 16 16 16 16 17 18 19 19 20 21 21 21 21 20 19 18 18 18 18
16 16 16 16 16 16 16 15 16 16 17 17 16 16 15 15 14 13 12 10 9 8 8 9 8 7 5 4 3 3 3 5 6 7 8 10 11 11 11 10 10 10 10 10 10 11 11 11 11 11 12 13 13 14 14 14 15 15 15 15 15 15 15 15 15 15 15 16 15 15 15 16 17 18 19 21 21 21 21 22 21 21 20 19 18
16 16 15 15 16 16 16 15 15 15 15 16 16 16 15 14 13 12 11 10 9 9 9 9 8 7 6 5 5 4 5 7 8 9 10 12 13 13 12 11 9 9 10 10 11 11 12 11 11 11 12 13 14 14 15 15 15 15 16 16 16 16 16 15 15 15 15 16 16 15 15 15 15 16 18 19 21 21 21 22 22 22 22 21 19
17 16 15 15 15 15 16 16 16 15 15 16 16 16 15 13 12 11 11 10 10 9 9 9 8 7 6 6 6 6 8 9 9 11 12 13 14 14 13 11 10 10 11 12 12 13 13 12 12 12 12 13 14 15 15 15 15 15 16 16 16 17 17 16 16 15 15 16 16 17 16 16 15 15 17 18 19 20 21 22 22 22 22 22 20
15 16 15 15 16 15 16 16 16 16 16 16 16 15 14 12 12 11 11 10 10 9 9 9 8 7 7 7 7 8 9 9 10 11 13 13 14 14 13 12 11 12 13 14 14 14 14 13 12 12 12 13 13 14 15 15 14 15 16 15 14 15 16 17 16 15 16 16 16 17 17 18 17 17 18 19 19 20 21 22 23 23 22 22 22
14 14 14 15 16 15 16 16 16 16 16 15 15 14 13 12 11 11 10 10 10 9 9 9 8 8 7 8 8 9 9 10 11 12 13 14 14 14 13 12 12 13 13 14 14 14 14 14 13 13 13 13 13 14 14 15 14 14 15 14 14 14 13 15 17 17 18 17 15 16 17 18 19 19 20 20 21 21 22 22 23 23 23 23 22
16 15 14 15 15 15 15 15 15 16 15 15 14 14 12 11 11 10 9 9 9 10 10 10 9 9 8 8 8 8 9 11 12 13 14 15 15 14 13 13 13 14 14 13 13 13 14 14 14 15 15 14 14 15 15 15 13 13 13 13 13 13 13 15 18 18 18 18 17 16 17 18 20 21 21 22 22 22 22 23 23 22 23 24 23
19 16 15 15 15 16 16 16 16 16 15 15 14 13 12 11 11 10 10 10 10 11 11 10 10 9 9 8 8 9 10 12 13 14 15 15 15 15 14 14 15 15 14 13 13 14 15 16 15 16 16 16 16 16 15 14 14 13 13 13 13 14 15 16 17 17 18 19 20 19 19 19 20 21 22 22 23 23 23 23 23 23 23 24 24
19 17 15 15 16 17 17 17 17 15 15 14 13 12 12 11 11 10 11 11 12 12 11 10 9 9 9 8 9 10 11 12 14 14 15 15 15 15 14 15 15 15 14 13 13 14 15 15 16 16 16 16 16 16 15 14 14 13 13 13 13 14 15 16 16 17 18 19 20 20 21 21 22 23 22 22 23 24 24 24 24 24 24 25 26
20 18 16 15 16 17 17 16 16 15 14 12 11 12 12 11 11 11 12 12 12 12 10 10 9 9 10 10 11 12 12 13 14 15 15 15 15 15 15 15 16 15 14 14 14 15 14 14 15 14 14 14 15 15 15 15 15 15 14 14 14 14 15 16 17 18 18 19 19 20 21 23 24 24 24 24 24 25 26 26 26 26 26 26 27
20 19 17 15 17 17 15 14 13 12 11 11 11 12 11 11 11 12 13 12 12 11 10 10 10 11 11 12 13 13 13 14 14 15 15 15 14 14 15 16 16 16 15 15 15 15 14 14 14 14 14 14 15 15 16 16 17 17 17 17 17 17 16 16 17 17 18 20 20 20 21 22 23 24 26 27 26 27 27 28 28 28 28 27 27
22 19 17 16 17 16 14 14 13 12 12 12 11 12 11 12 12 12 12 12 12 11 10 11 11 12 13 13 14 14 14 14 15 15 15 15 14 14 15 15 15 15 15 15 14 14 14 13 13 14 14 15 15 16 16 17 17 18 19 19 20 20 19 18 18 18 18 20 21 21 21 22 23 24 26 28 28 29 28 29 30 29 29 29 28
22 19 18 17 18 17 16 16 15 14 14 13 13 13 13 14 13 12 12 12 11 11 11 12 12 13 14 14 14 14 14 15 15 15 15 15 14 14 15 15 15 14 14 14 14 13 13 13 13 14 14 15 15 16 17 18 18 19 19 20 21 22 22 21 20 19 19 20 21 22 22 22 23 24 25 27 30 30 29 30 31 30 29 29 28
Wind_Direction
185 172 168 170 169 157 150 150 142 135 135 134 133 133 130 124 116 109 102 93 83 74 71 71 72 73 72 71 69 67 65 63 62 62 61 60 61 60 59 58 56 56 57 58 59 59 58 56 54 54 56 64 76 78 76 78 81 89 93 93 91 89 89 90 89 89 88 87 89 90 91 93 93 94 95 96 95 95 95 92 91 91 91 91 88
191 176 172 173 174 164 157 158 152 142 141 140 140 142 140 135 127 120 115 106 93 80 75 75 76 76 76 74 71 69 67 67 66 65 63 63 64 62 61 60 58 58 58 58 58 58 57 56 56 57 61 66 75 80 82 82 83 88 90 90 90 91 92 91 91 89 88 89 90 92 92 91 92 93 95 96 96 96 95 93 93 92 91 90 88
192 183 176 176 178 170 164 165 162 150 147 149 149 150 148 146 140 134 130 124 108 92 82 81 82 81 80 77 75 73 72 71 70 68 66 65 66 65 64 62 61 60 59 59 59 60 59 59 60 61 64 67 72 79 83 82 83 86 90 92 93 94 93 92 90 88 89 92 92 92 92 91 93 94 95 95 96 95 95 94 93 93 91 89 86
189 187 183 179 181 176 172 172 169 157 154 157 159 159 157 157 153 150 145 141 132 113 98 93 89 87 85 81 80 78 77 75 73 71 68 67 67 66 66 64 63 62 61 60 60 61 63 64 66 67 67 68 71 78 84 84 84 85 88 91 93 94 93 93 90 90 92 94 95 94 93 92 93 94 95 95 95 95 95 94 93 92 90 87 85
190 190 188 184 184 181 178 179 176 165 161 163 167 168 165 167 166 164 161 160 156 145 132 112 100 95 91 87 85 83 81 79 78 75 72 71 69 67 67 66 64 62 63 62 62 63 67 71 73 73 72 74 77 81 85 86 85 84 86 89 91 93 93 94 93 94 95 95 95 93 91 91 91 92 93 94 95 95 94 93 92 91 89 86 84
197 192 192 190 188 187 183 185 185 172 167 169 173 176 174 175 176 175 173 175 175 173 169 143 119 106 99 93 90 88 86 84 83 80 76 75 73 71 68 69 66 63 63 64 66 68 71 76 79 78 78 81 84 86 87 88 88 88 90 91 92 93 95 96 96 95 94 93 91 89 89 89 90 90 91 91 92 93 93 92 90 90 88 84 82
201 195 195 195 194 193 187 188 191 179 172 174 177 181 182 183 185 185 183 186 188 188 189 175 145 121 107 100 95 91 90 89 88 85 81 79 78 75 72 72 70 66 64 66 69 73 77 81 82 83 84 86 88 89 90 90 91 92 92 93 93 95 97 97 97 94 94 93 90 90 89 88 88 88 88 89 89 89 89 88 87 85 84 82 79
200 197 199 198 198 197 191 192 194 186 177 177 180 184 188 190 193 193 192 194 196 196 198 190 171 143 122 109 103 96 94 94 92 91 86 83 82 80 76 75 73 70 66 67 71 76 81 83 84 85 87 88 90 91 92 91 91 92 92 93 95 96 97 97 98 98 96 94 93 93 92 92 91 90 90 89 89 87 86 85 84 82 80 79 76
199 197 201 200 201 199 193 194 196 191 182 180 183 188 193 196 199 200 200 202 203 202 201 198 188 167 144 127 112 103 101 98 96 95 92 88 86 84 80 78 76 74 69 69 72 76 81 84 85 85 87 90 92 93 93 93 92 92 92 93 95 97 98 98 100 101 98 97 97 97 95 95 95 94 92 91 90 88 87 85 83 82 79 76 72
202 199 203 202 202 199 194 196 198 194 186 184 185 191 196 200 204 205 206 206 207 205 202 200 196 189 172 146 122 111 106 102 102 98 96 93 89 88 84 80 78 78 74 71 73 76 80 83 86 87 87 90 92 94 95 95 94 93 93 94 95 97 97 98 99 97 97 99 101 100 100 100 100 99 97 94 93 91 88 86 83 81 78 75 68
205 203 204 203 202 198 195 197 199 196 190 187 188 194 199 204 207 208 210 209 210 207 203 200 200 201 193 169 136 118 110 106 106 101 97 95 92 90 87 83 79 79 77 74 75 77 80 82 86 89 88 90 92 94 94 95 95 95 95 95 96 95 94 94 92 90 92 97 98 98 100 100 100 99 98 94 90 89 86 85 85 77 66 57 46
205 207 207 205 201 198 197 199 201 199 193 190 191 197 201 206 209 211 212 212 213 210 207 203 202 207 207 201 158 127 116 111 106 101 97 96 93 91 88 85 80 79 78 75 74 77 80 82 86 88 89 90 91 92 93 94 95 96 97 96 95 94 93 90 87 88 88 90 93 92 94 94 93 89 84 76 69 65 58 51 39 19 1 354 346
206 210 210 207 203 201 200 201 203 201 196 195 196 200 204 207 211 214 216 216 216 215 214 210 208 212 212 216 191 141 120 113 107 100 96 96 94 92 91 87 84 81 79 76 75 76 80 82 85 86 90 91 91 92 95 96 97 96 96 96 95 92 92 86 83 85 83 83 85 85 86 84 77 68 52 42 31 19 7 352 338 326 320 316 313
205 208 208 207 206 204 204 204 204 203 199 199 200 203 205 208 213 216 219 220 221 221 222 221 219 220 220 221 211 170 134 120 109 103 98 97 98 97 97 93 90 86 81 79 77 75 78 81 83 85 90 94 97 99 100 102 101 100 98 98 96 92 90 84 81 80 76 71 64 66 66 60 48 23 5 354 345 336 327 317 310 305 302 299 297
203 204 205 206 207 206 206 207 206 205 202 203 204 205 207 208 213 218 222 225 226 228 228 230 230 230 231 227 220 200 171 141 114 109 105 102 110 112 111 105 96 92 86 82 80 79 77 77 81 85 90 98 105 107 107 108 108 107 105 104 101 93 88 84 84 78 68 57 42 40 32 22 3 344 336 328 324 320 317 313 308 304 299 294 290
202 201 200 202 206 207 208 209 209 207 204 206 207 207 208 208 213 219 223 228 229 232 233 235 235 235 236 231 226 215 202 186 143 128 130 125 136 132 127 122 111 106 99 90 89 87 81 74 76 77 85 98 107 113 114 114 115 115 115 114 104 89 79 71 81 76 54 38 25 18 5 0 347 339 334 327 324 320 319 316 312 309 304 298 293
202 200 197 199 204 205 207 210 210 209 207 207 209 209 209 208 211 218 223 228 231 234 236 235 237 239 237 234 231 222 219 225 215 206 195 200 188 169 152 141 140 139 133 122 112 103 94 82 74 58 62 88 103 120 126 129 128 125 124 122 100 69 58 50 57 47 24 15 9 3 352 351 347 344 341 337 335 332 331 330 326 320 314 308 300
200 200 198 199 201 203 204 207 208 207 208 209 212 213 211 210 210 217 222 226 230 234 237 236 238 240 240 236 235 231 225 232 237 241 244 242 236 232 217 194 202 201 203 192 162 146 132 120 117 32 329 327 11 154 162 175 185 184 190 254 355 15 29 22 10 358 350 352 352 351 348 346 345 343 339 339 338 337 337 338 338 334 329 321 311
199 201 200 201 200 201 202 202 204 204 206 210 214 215 213 212 211 215 220 224 230 234 238 236 236 239 240 239 237 236 230 234 242 250 256 256 256 256 255 251 252 245 244 239 224 204 194 189 191 212 248 274 278 259 241 242 254 261 270 289 303 322 344 340 346 340 333 340 337 339 344 343 343 340 338 338 336 334 335 337 339 338 337 332 324
200 202 203 203 200 200 200 200 201 200 203 208 212 215 213 212 212 215 218 223 229 232 237 235 234 236 236 237 238 238 236 240 245 251 256 258 261 262 261 259 261 261 258 256 248 238 233 228 221 219 229 246 261 269 269 269 274 280 286 293 302 308 313 320 326 323 323 330 324 328 337 336 337 338 338 337 333 330 331 333 334 336 338 337 331
205 207 208 205 201 202 201 198 197 198 200 205 210 213 212 212 212 213 217 222 226 229 232 231 231 231 231 233 236 239 238 240 241 245 251 255 262 264 266 263 262 264 264 263 259 254 249 247 242 237 236 239 247 258 266 272 276 280 285 290 297 300 303 310 312 311 315 316 314 322 329 329 331 332 334 334 330 327 326 328 330 332 334 336 334
213 214 213 208 205 204 200 197 196 197 198 202 206 209 211 211 210 210 213 218 222 226 227 226 227 228 229 231 234 237 237 238 239 242 249 255 262 267 269 270 269 269 269 268 267 263 260 257 255 251 247 246 248 251 256 261 268 273 277 282 288 291 296 301 302 302 304 306 310 316 321 324 327 329 331 332 330 328 325 324 325 327 330 332 332
220 220 216 213 211 205 197 196 196 196 198 201 203 205 208 208 208 207 209 214 218 223 224 223 224 226 229 231 233 236 237 240 244 249 253 259 266 271 273 275 276 276 276 276 274 271 268 266 263 260 257 254 253 253 257 258 259 264 268 273 278 283 288 291 293 295 297 299 303 309 314 317 321 324 328 329 330 330 327 323 322 324 326 328 328
222 220 217 216 214 204 196 196 197 197 198 200 201 204 206 206 206 205 206 211 216 221 223 223 224 227 230 232 236 238 239 243 249 256 262 267 272 276 279 281 282 282 282 281 281 280 276 274 270 267 264 260 257 256 260 264 263 262 263 267 270 274 279 282 285 289 291 294 297 302 307 310 313 316 320 323 326 328 327 324 322 323 323 324 324
216 213 212 213 211 203 197 197 197 198 198 198 200 202 203 203 204 204 204 208 215 221 223 225 227 230 233 235 238 241 243 247 252 260 267 272 275 278 281 283 284 283 285 285 285 285 283 280 276 272 269 266 264 259 259 264 268 267 265 266 268 270 273 277 280 283 287 289 292 295 299 304 306 309 313 317 321 324 326 324 321 320 320 319 320
210 207 206 207 206 200 197 197 198 199 198 198 200 201 202 200 201 202 202 207 214 220 223 226 230 234 238 240 243 246 250 252 254 257 262 269 272 275 278 279 280 282 285 286 287 288 287 284 281 277 274 271 269 267 264 263 266 267 267 267 267 268 270 274 277 280 282 284 286 289 293 297 301 305 309 313 317 320 323 324 321 318 316 316 317
209 205 202 201 200 197 197 198 197 198 197 198 199 200 200 199 200 201 202 207 213 219 223 227 232 238 243 246 249 252 255 254 249 251 258 265 269 271 274 275 278 282 283 285 287 287 286 285 284 281 278 276 274 271 269 267 266 267 267 267 266 265 266 269 273 275 278 280 281 284 287 292 297 302 305 309 313 316 320 321 320 318 315 313 314
209 204 200 197 196 196 198 196 195 195 194 196 198 199 199 199 201 202 205 209 215 220 224 229 235 241 246 249 253 257 258 254 249 255 263 265 269 270 271 276 280 282 283 284 287 287 286 285 284 283 283 281 279 276 273 271 269 269 270 270 269 267 264 264 268 273 276 278 280 281 283 286 292 298 302 306 310 312 314 315 317 319 317 312 313
207 199 196 197 197 195 195 194 193 193 191 193 196 199 199 200 202 204 208 211 217 222 227 232 237 243 247 251 256 259 259 255 258 266 271 272 275 277 278 281 284 287 287 287 288 288 288 288 288 288 287 286 284 282 280 276 273 272 273 272 273 272 268 264 264 270 274 276 277 279 280 282 287 293 297 301 306 308 308 310 314 320 318 312 312
203 196 196 198 198 195 194 193 192 191 191 193 196 198 199 201 204 206 210 214 219 224 229 235 240 245 248 253 255 256 260 264 271 275 277 279 281 284 287 289 293 298 296 294 294 292 292 292 292 292 292 292 289 286 284 282 280 277 276 275 275 274 270 264 261 263 268 271 274 275 276 279 283 287 292 297 302 305 306 308 311 316 317 312 310
201 194 197 198 197 195 194 192 191 191 191 194 196 197 199 202 205 208 211 215 220 225 231 237 242 247 249 250 251 256 267 273 278 279 279 281 285 290 294 297 302 307 303 301 300 297 297 296 296 295 295 295 292 289 285 283 283 282 280 279 278 276 274 269 263 260 263 268 272 275 276 277 280 283 287 292 299 304 304 306 307 310 315 312 308
197 192 196 198 197 194 194 193 191 190 193 196 197 199 201 203 205 208 213 217 221 224 228 234 242 248 247 246 249 259 271 278 281 283 284 287 293 298 302 304 306 309 309 307 306 305 303 302 302 299 297 296 293 290 287 286 285 284 283 283 280 278 277 275 271 267 265 266 268 271 275 276 277 279 283 287 293 299 300 302 303 303 310 311 305
194 192 195 197 196 193 194 195 193 192 195 198 199 202 204 204 206 209 214 218 220 222 225 235 243 245 243 244 251 263 274 281 284 286 290 294 300 305 307 308 309 310 312 311 311 311 310 309 307 305 302 299 296 292 291 291 289 287 286 285 283 280 279 278 278 276 271 267 265 266 271 274 275 275 278 282 287 293 294 296 298 297 301 307 304
195 194 195 198 196 194 196 197 196 196 198 201 202 205 207 206 207 211 215 219 218 220 227 238 244 242 244 251 260 272 279 282 285 289 296 300 304 310 311 312 314 313 313 313 314 314 313 312 310 310 309 304 301 300 298 295 291 290 289 287 286 282 280 280 281 281 277 273 269 267 268 273 275 275 275 278 282 287 288 289 293 293 295 300 301
196 197 198 201 200 198 199 200 199 200 202 203 205 208 209 208 209 211 215 218 218 221 230 239 244 247 250 259 269 278 280 280 286 293 301 306 310 315 316 316 317 315 312 312 312 312 312 312 312 314 315 310 306 305 304 300 296 294 292 293 292 287 283 283 284 284 283 282 278 274 270 270 274 276 277 278 278 280 282 283 286 289 291 295 297
196 199 203 205 205 203 203 204 204 204 205 206 208 209 210 209 210 212 215 217 220 224 233 241 247 252 257 266 276 280 278 282 290 300 310 314 318 319 320 320 318 314 311 309 307 307 309 310 311 316 317 314 311 310 309 305 303 301 299 300 300 296 292 290 288 288 287 287 283 280 276 271 269 273 276 279 279 276 276 279 282 286 288 290 292
196 199 205 208 208 208 207 208 208 207 208 208 210 210 210 211 211 214 217 219 223 228 235 242 247 254 265 273 279 278 281 295 303 313 322 322 322 323 324 322 316 312 308 306 304 303 306 308 310 314 316 316 316 315 314 310 308 307 304 303 304 304 302 299 296 293 292 291 286 282 280 275 270 271 275 278 279 276 272 273 277 282 284 286 288
195 199 205 208 209 212 214 214 213 211 210 210 211 212 212 214 215 217 219 220 225 230 236 243 249 256 266 273 277 286 294 306 314 321 325 323 325 327 326 323 316 311 308 306 306 306 308 309 311 314 316 317 317 318 317 315 313 311 308 305 305 307 306 303 301 298 296 294 289 284 281 277 274 273 275 276 276 275 273 271 273 278 280 282 284
194 202 205 210 211 215 218 218 217 216 214 213 213 213 214 216 219 220 221 222 226 232 237 243 249 257 262 266 273 286 296 305 313 322 326 327 331 332 329 326 321 314 311 311 311 313 312 311 314 315 317 318 319 319 318 317 317 314 311 307 307 309 308 306 305 303 299 294 291 287 282 279 277 274 275 275 274 273 273 274 274 274 275 277 278
196 206 208 212 215 218 220 220 220 220 219 217 216 216 217 220 222 222 222 222 227 231 235 242 249 253 253 253 254 260 286 305 315 323 328 329 332 334 331 326 323 318 317 317 316 315 314 314 316 316 317 318 318 319 319 318 317 313 311 310 311 311 309 309 309 307 303 298 294 292 288 284 280 275 273 272 272 270 271 273 273 273 273 273 272
201 209 212 215 219 220 222 221 220 220 219 219 219 219 220 222 224 224 222 221 225 229 234 241 244 243 239 240 243 261 294 311 318 322 325 327 329 331 329 324 321 321 323 323 322 320 318 319 320 319 320 318 318 320 320 320 318 315 313 311 312 311 310 311 310 308 305 303 300 298 295 290 285 279 274 270 270 270 271 272 273 274 274 272 269
204 208 214 219 222 221 222 221 218 217 218 219 220 221 222 223 224 223 221 223 228 232 236 237 236 234 232 236 250 275 298 309 315 318 321 323 326 328 326 323 322 324 327 327 327 326 323 323 322 320 320 319 318 319 320 319 317 313 309 311 313 311 312 313 311 309 307 305 304 302 299 296 292 285 278 273 271 271 271 272 272 273 274 272 267
208 208 215 219 220 219 219 219 215 214 215 217 219 220 220 221 221 221 221 227 233 236 237 234 231 231 234 245 264 283 297 306 311 314 317 320 324 325 324 323 324 327 329 329 329 327 325 323 323 322 321 320 318 318 318 316 313 308 308 312 313 312 315 315 312 312 310 305 303 302 300 298 295 290 284 281 278 276 274 272 270 268 269 270 267
221 215 215 216 216 217 218 217 215 214 214 216 216 215 216 217 219 220 222 227 233 234 232 229 229 233 243 259 274 287 298 306 310 311 314 319 321 321 321 322 322 326 328 329 328 326 324 322 324 326 324 321 318 316 315 312 310 307 307 308 308 310 314 309 309 313 312 308 305 302 299 297 295 292 290 288 286 283 279 275 270 265 263 265 267
227 222 215 214 216 217 217 216 214 213 213 212 211 211 211 214 218 219 220 224 228 228 225 225 230 241 253 266 278 290 300 304 307 310 313 317 318 316 317 318 319 323 326 327 325 323 323 322 323 325 323 321 316 313 311 310 308 306 305 305 303 305 303 298 303 309 309 308 306 304 301 299 294 292 291 290 289 287 283 279 274 268 261 259 262
225 221 214 213 214 215 213 212 211 210 210 208 208 209 208 212 216 214 214 219 222 222 222 225 234 247 259 270 281 291 298 302 305 310 312 312 312 311 312 314 317 322 324 323 323 322 322 322 323 324 323 320 316 314 312 309 308 309 308 307 302 299 298 297 301 302 301 302 303 303 302 298 295 292 290 289 288 287 285 282 277 272 266 261 260
227 223 218 213 213 212 207 207 208 206 206 206 205 208 208 210 212 211 214 217 217 218 223 232 242 255 265 274 281 287 294 301 306 309 309 309 307 306 307 310 314 318 320 320 320 320 320 321 322 323 322 320 319 320 319 314 314 315 312 312 309 303 302 302 301 298 296 298 300 302 301 299 295 292 290 288 286 284 282 280 277 272 268 264 260
229 227 221 214 214 213 206 204 206 202 202 202 201 209 210 209 210 210 214 216 217 219 227 239 248 258 270 278 282 288 294 300 304 306 305 304 302 301 303 307 310 312 315 318 319 318 319 319 319 320 320 321 322 323 324 324 324 323 319 317 314 308 306 305 302 299 299 299 298 298 298 296 294 293 290 287 284 282 280 278 275 271 267 264 261
232 230 223 215 214 215 207 206 208 203 205 205 204 212 212 210 212 212 213 215 218 223 232 243 254 262 272 280 283 286 290 293 297 298 298 296 293 294 299 303 307 309 313 316 318 317 317 318 318 319 319 319 321 321 324 328 328 328 326 322 319 314 308 304 302 302 302 298 295 294 293 292 293 293 290 287 284 281 279 277 275 272 268 265 262
232 230 224 216 214 214 206 206 207 204 208 209 208 212 211 210 211 210 210 214 220 229 239 250 262 270 276 282 283 283 284 287 292 294 293 291 289 290 293 298 302 305 310 312 313 312 311 314 315 317 317 318 320 320 323 326 327 329 329 327 325 319 312 305 302 300 296 293 293 293 293 292 291 291 290 290 287 282 278 276 274 273 271 268 264
231 227 221 214 211 211 205 204 205 205 207 207 207 208 208 208 207 208 211 217 227 237 248 258 266 274 279 281 279 279 282 288 294 295 292 290 290 290 291 295 298 301 306 307 307 308 309 312 312 314 314 315 317 319 322 324 325 326 326 327 325 322 318 312 306 302 296 294 295 294 295 295 292 290 291 292 291 288 284 277 273 271 270 268 265
Height
3181 3181 3181 3182 3183 3183 3184 3183 3183 3183 3184 3185 3186 3186 3187 3187 3188 3188 3188 3189 3188 3188 3188 3187 3187 3186 3186 3186 3185 3185 3185 3184 3183 3183 3182 3182 3181 3180 3180 3179 3179 3179 3178 3178 3177 3177 3177 3176 3176 3176 3175 3175 3175 3175 3175 3175 3174 3174 3174 3173 3173 3173 3173 3173 3173 3173 3173 3172 3172 3172 3172 3173 3172 3172 3172 3172 3172 3172 3172 3172 3172 3172 3173 3173 3173
3181 3181 3181 3182 3183 3183 3183 3183 3183 3183 3184 3185 3186 3187 3187 3188 3188 3189 3189 3189 3189 3189 3188 3188 3187 3187 3187 3186 3186 3186 3185 3185 3184 3184 3184 3183 3182 3181 3181 3181 3180 3180 3179 3179 3178 3178 3177 3177 3177 3176 3176 3176 3175 3175 3175 3175 3175 3175 3175 3174 3174 3174 3174 3174 3174 3173 3173 3173 3173 3173 3173 3173 3173 3173 3173 3173 3173 3174 3174 3174 3174 3174 3174 3174 3174
3181 3181 3181 3182 3182 3183 3183 3183 3183 3183 3184 3185 3186 3187 3188 3188 3188 3189 3189 3189 3189 3189 3189 3188 3188 3188 3187 3187 3186 3186 3186 3186 3185 3185 3185 3184 3183 3182 3182 3182 3181 3181 3180 3180 3179 3179 3178 3178 3178 3177 3177 3176 3176 3176 3176 3176 3176 3176 3175 3175 3175 3175 3175 3174 3174 3174 3174 3174 3174 3174 3174 3174 3174 3174 3174 3175 3175 3175 3175 3175 3175 3175 3175 3175 3175
3180 3181 3181 3181 3182 3183 3183 3183 3183 3183 3184 3185 3186 3187 3188 3188 3189 3189 3189 3190 3190 3189 3189 3189 3189 3188 3188 3187 3187 3187 3187 3186 3186 3186 3186 3185 3184 3184 3183 3183 3182 3182 3181 3181 3180 3180 3179 3179 3178 3178 3178 3177 3177 3177 3177 3177 3177 3176 3176 3176 3176 3176 3175 3175 3175 3175 3175 3175 3175 3175 3175 3175 3176 3176 3176 3176 3176 3176 3176 3176 3176 3176 3176 3176 3176
3180 3180 3181 3181 3182 3182 3182 3183 3184 3183 3184 3185 3186 3187 3188 3188 3189 3189 3189 3190 3190 3190 3190 3189 3189 3189 3188 3188 3188 3188 3187 3187 3187 3187 3186 3186 3185 3185 3184 3184 3183 3183 3182 3182 3181 3181 3180 3180 3179 3179 3179 3178 3178 3178 3178 3178 3178 3177 3177 3177 3177 3177 3176 3176 3176 3176 3176 3177 3176 3176 3177 3177 3177 3177 3177 3177 3177 3177 3177 3177 3177 3177 3177 3177 3177
3180 3180 3181 3181 3182 3182 3182 3183 3184 3184 3184 3185 3186 3187 3188 3188 3189 3189 3189 3190 3190 3190 3190 3190 3190 3189 3189 3189 3188 3188 3188 3188 3188 3188 3187 3186 3186 3186 3185 3185 3184 3184 3183 3183 3182 3182 3181 3181 3180 3180 3180 3179 3179 3179 3179 3179 3179 3179 3178 3178 3178 3178 3178 3178 3177 3178 3178 3178 3178 3178 3178 3179 3179 3179 3178 3178 3178 3178 3178 3178 3178 3178 3178 3178 3178
3180 3180 3181 3181 3182 3182 3183 3183 3184 3184 3184 3185 3186 3187 3188 3188 3189 3189 3189 3190 3190 3190 3190 3190 3190 3190 3190 3189 3189 3189 3189 3189 3188 3188 3188 3187 3187 3186 3186 3186 3185 3185 3184 3184 3183 3183 3183 3182 3182 3181 3181 3180 3180 3180 3180 3180 3180 3180 3180 3179 3179 3179 3179 3179 3179 3179 3179 3179 3179 3179 3180 3180 3180 3180 3180 3180 3180 3180 3179 3179 3179 3179 3179 3178 3178
3180 3180 3180 3181 3182 3183 3183 3183 3184 3184 3184 3185 3186 3187 3188 3188 3189 3189 3189 3190 3190 3190 3191 3191 3191 3190 3190 3190 3190 3190 3189 3189 3189 3189 3188 3188 3188 3187 3187 3187 3186 3186 3185 3185 3185 3184 3184 3183 3183 3183 3182 3182 3181 3181 3181 3181 3181 3181 3181 3181 3181 3181 3181 3181 3180 3180 3180 3180 3180 3181 3181 3181 3181 3181 3181 3181 3181 3181 3181 3180 3180 3180 3180 3179 3179
3179 3179 3180 3181 3182 3182 3183 3183 3183 3183 3184 3185 3186 3187 3187 3188 3189 3189 3189 3190 3190 3190 3191 3191 3191 3191 3190 3190 3190 3190 3190 3190 3189 3189 3189 3189 3189 3188 3188 3188 3187 3187 3186 3186 3186 3185 3185 3185 3184 3184 3184 3183 3182 3182 3182 3182 3182 3182 3182 3182 3182 3182 3182 3182 3182 3182 3181 3182 3182 3182 3182 3182 3182 3182 3182 3182 3182 3182 3181 3181 3181 3181 3180 3180 3180
3178 3178 3179 3180 3181 3182 3182 3183 3183 3183 3184 3184 3185 3186 3187 3188 3188 3189 3189 3190 3190 3190 3191 3191 3191 3191 3191 3190 3190 3190 3190 3190 3190 3190 3190 3190 3190 3189 3189 3189 3188 3188 3187 3187 3187 3186 3186 3186 3185 3185 3185 3185 3184 3183 3183 3183 3183 3183 3184 3184 3184 3184 3184 3183 3184 3183 3183 3183 3183 3183 3183 3183 3183 3183 3183 3183 3182 3182 3182 3182 3182 3181 3181 3180 3180
3177 3178 3178 3179 3180 3181 3181 3182 3182 3183 3183 3184 3185 3186 3187 3187 3188 3189 3189 3189 3190 3190 3190 3191 3191 3191 3191 3191 3191 3191 3190 3190 3190 3190 3190 3190 3190 3190 3189 3189 3189 3189 3188 3188 3188 3187 3187 3187 3187 3187 3187 3186 3186 3185 3185 3184 3184 3184 3185 3185 3185 3185 3185 3185 3185 3184 3185 3185 3185 3184 3184 3184 3184 3184 3184 3184 3183 3183 3183 3182 3182 3182 3181 3181 3180
3177 3177 3177 3178 3179 3180 3180 3181 3181 3182 3183 3184 3184 3185 3186 3187 3188 3188 3189 3189 3189 3190 3190 3191 3191 3191 3191 3191 3191 3191 3191 3191 3191 3190 3190 3191 3191 3191 3190 3190 3189 3189 3189 3189 3189 3188 3188 3188 3188 3187 3187 3187 3187 3187 3186 3186 3186 3186 3186 3186 3187 3187 3187 3186 3186 3186 3186 3186 3186 3186 3185 3185 3185 3185 3185 3184 3184 3183 3183 3183 3182 3182 3181 3181 3180
3176 3176 3176 3177 3178 3179 3179 3180 3181 3181 3182 3183 3184 3184 3185 3187 3187 3188 3189 3189 3189 3190 3190 3191 3191 3191 3191 3191 3191 3191 3191 3191 3191 3191 3191 3191 3191 3191 3191 3190 3190 3190 3190 3190 3190 3189 3189 3189 3188 3188 3188 3188 3188 3188 3187 3187 3187 3187 3187 3187 3188 3188 3188 3188 3187 3187 3188 3187 3187 3187 3186 3186 3186 3185 3185 3185 3184 3184 3183 3183 3183 3182 3181 3181 3180
3175 3175 3176 3176 3177 3178 3178 3179 3180 3180 3181 3182 3183 3184 3185 3187 3187 3188 3189 3189 3189 3190 3190 3191 3191 3191 3191 3191 3191 3191 3191 3191 3191 3191 3191 3191 3192 3192 3191 3191 3191 3190 3190 3190 3190 3190 3190 3189 3189 3189 3189 3189 3189 3188 3188 3188 3188 3188 3188 3188 3188 3188 3188 3188 3188 3188 3188 3188 3188 3187 3187 3186 3186 3186 3185 3185 3184 3184 3183 3183 3182 3182 3181 3181 3180
3174 3174 3175 3176 3176 3177 3178 3178 3179 3180 3181 3182 3183 3184 3185 3187 3187 3188 3189 3189 3190 3190 3190 3191 3191 3191 3191 3191 3191 3191 3191 3191 3191 3191 3191 3191 3192 3192 3192 3191 3191 3191 3191 3191 3191 3191 3190 3190 3190 3190 3190 3189 3189 3189 3189 3189 3189 3188 3189 3189 3189 3189 3189 3189 3188 3189 3189 3189 3188 3188 3187 3187 3186 3186 3185 3185 3184 3183 3183 3182 3182 3181 3181 3180 3179
3173 3173 3174 3175 3175 3176 3177 3177 3178 3179 3180 3181 3183 3184 3185 3186 3187 3188 3188 3189 3189 3190 3190 3191 3191 3191 3191 3191 3191 3191 3191 3192 3192 3191 3191 3191 3192 3192 3192 3191 3191 3191 3191 3191 3191 3191 3191 3190 3190 3190 3190 3190 3190 3190 3190 3189 3189 3189 3189 3189 3189 3189 3189 3189 3189 3189 3189 3189 3188 3188 3188 3187 3186 3185 3185 3184 3184 3183 3183 3182 3181 3180 3179 3179 3178
3172 3172 3173 3174 3174 3175 3176 3177 3178 3179 3180 3181 3182 3183 3184 3186 3187 3187 3188 3189 3189 3190 3190 3191 3191 3191 3191 3191 3191 3191 3192 3192 3192 3191 3191 3192 3192 3192 3192 3192 3192 3191 3191 3191 3191 3191 3191 3191 3190 3190 3191 3191 3190 3190 3190 3190 3190 3190 3190 3190 3189 3189 3189 3189 3189 3189 3189 3188 3188 3188 3187 3187 3186 3185 3185 3184 3183 3183 3182 3181 3180 3179 3178 3178 3177
3171 3171 3172 3173 3173 3174 3175 3176 3177 3178 3179 3181 3182 3183 3184 3185 3186 3187 3188 3188 3189 3189 3190 3190 3191 3191 3191 3191 3191 3191 3192 3192 3191 3191 3191 3191 3192 3192 3192 3192 3192 3192 3191 3191 3191 3192 3192 3191 3191 3191 3191 3191 3191 3190 3190 3190 3190 3190 3190 3190 3190 3190 3189 3189 3189 3189 3189 3188 3188 3187 3187 3186 3186 3185 3184 3183 3183 3182 3181 3180 3179 3178 3177 3177 3176
3170 3170 3171 3172 3172 3173 3174 3175 3176 3177 3179 3180 3181 3182 3183 3184 3185 3186 3187 3188 3188 3189 3190 3190 3191 3191 3191 3191 3191 3191 3191 3191 3191 3191 3191 3191 3191 3191 3191 3191 3191 3191 3191 3191 3191 3191 3192 3191 3191 3191 3191 3191 3191 3190 3190 3190 3190 3190 3190 3190 3190 3189 3189 3189 3189 3189 3188 3188 3187 3186 3186 3186 3185 3184 3183 3183 3182 3181 3180 3179 3178 3177 3176 3175 3175
3169 3169 3170 3171 3172 3172 3173 3174 3175 3176 3178 3179 3180 3181 3183 3184 3185 3185 3186 3187 3188 3188 3189 3190 3190 3191 3191 3191 3191 3191 3191 3191 3191 3190 3190 3190 3191 3191 3191 3191 3191 3191 3191 3191 3191 3191 3191 3191 3191 3191 3191 3190 3190 3190 3190 3190 3190 3190 3190 3190 3189 3189 3189 3188 3188 3188 3187 3187 3186 3186 3185 3185 3184 3184 3183 3182 3181 3180 3179 3178 3177 3176 3175 3174 3173
3168 3168 3169 3170 3171 3171 3172 3173 3174 3175 3177 3178 3179 3181 3182 3183 3184 3185 3186 3186 3187 3188 3189 3189 3190 3190 3190 3190 3190 3190 3190 3190 3190 3190 3190 3190 3190 3190 3190 3190 3190 3191 3191 3190 3190 3190 3190 3191 3191 3191 3190 3190 3190 3190 3189 3189 3189 3189 3189 3189 3189 3188 3188 3188 3188 3187 3187 3186 3186 3185 3185 3184 3183 3183 3182 3181 3180 3179 3178 3178 3177 3175 3174 3173 3172
3167 3167 3168 3169 3169 3170 3171 3172 3173 3174 3176 3177 3178 3180 3181 3182 3183 3184 3185 3186 3187 3187 3188 3188 3189 3189 3189 3190 3190 3190 3190 3190 3189 3189 3189 3189 3189 3189 3189 3190 3190 3190 3190 3190 3190 3190 3190 3190 3190 3190 3190 3190 3190 3189 3188 3188 3188 3188 3188 3188 3188 3187 3187 3187 3186 3186 3185 3185 3184 3184 3184 3183 3182 3182 3181 3180 3179 3179 3178 3177 3176 3175 3173 3172 3171
3166 3167 3167 3168 3169 3169 3170 3171 3172 3174 3175 3176 3177 3179 3180 3181 3182 3183 3184 3185 3186 3186 3187 3187 3188 3188 3189 3189 3189 3189 3189 3189 3189 3189 3189 3189 3189 3189 3189 3189 3189 3189 3189 3189 3189 3189 3189 3189 3189 3189 3189 3189 3189 3188 3188 3187 3187 3186 3186 3186 3186 3186 3186 3186 3185 3184 3184 3184 3183 3183 3182 3182 3181 3180 3180 3179 3178 3177 3177 3176 3175 3174 3172 3171 3170
3165 3166 3167 3167 3168 3169 3169 3170 3172 3173 3174 3175 3176 3178 3179 3180 3181 3182 3183 3184 3185 3185 3186 3186 3187 3188 3188 3188 3188 3188 3188 3188 3188 3189 3189 3189 3188 3188 3188 3188 3188 3188 3188 3188 3188 3188 3188 3188 3188 3188 3188 3188 3188 3188 3187 3186 3185 3185 3185 3185 3185 3185 3184 3184 3184 3183 3183 3182 3181 3181 3181 3180 3180 3179 3178 3178 3177 3176 3175 3175 3174 3172 3171 3170 3169
3164 3165 3166 3166 3167 3168 3169 3170 3171 3172 3173 3174 3175 3177 3178 3179 3180 3181 3182 3183 3184 3184 3185 3185 3186 3187 3187 3187 3188 3188 3188 3188 3188 3188 3188 3188 3188 3188 3187 3187 3187 3187 3187 3187 3187 3187 3186 3186 3186 3186 3186 3186 3187 3187 3186 3185 3184 3184 3184 3184 3184 3184 3183 3183 3182 3182 3181 3181 3180 3180 3179 3179 3178 3178 3177 3176 3176 3175 3174 3173 3172 3171 3170 3169 3168
3163 3164 3165 3166 3166 3168 3168 3169 3170 3171 3172 3174 3175 3176 3177 3178 3179 3180 3181 3182 3182 3183 3184 3185 3185 3186 3186 3187 3187 3187 3187 3188 3188 3188 3188 3188 3187 3187 3187 3186 3186 3186 3186 3186 3186 3185 3185 3185 3184 3184 3184 3185 3185 3185 3185 3184 3183 3182 3182 3182 3182 3182 3182 3181 3181 3181 3180 3180 3179 3178 3178 3177 3177 3176 3176 3175 3175 3174 3173 3172 3171 3170 3169 3168 3167
3163 3163 3164 3165 3166 3167 3167 3168 3169 3170 3172 3173 3174 3175 3176 3177 3177 3178 3180 3180 3181 3182 3183 3184 3184 3185 3186 3186 3186 3187 3187 3187 3187 3187 3187 3187 3187 3186 3186 3186 3185 3185 3185 3185 3184 3184 3184 3183 3182 3182 3182 3183 3183 3183 3183 3183 3182 3181 3180 3180 3180 3180 3180 3180 3179 3179 3179 3178 3177 3177 3176 3176 3175 3175 3174 3174 3173 3173 3172 3171 3170 3169 3168 3167 3166
3162 3162 3163 3164 3165 3166 3167 3168 3169 3170 3171 3172 3173 3174 3175 3175 3176 3177 3178 3179 3180 3181 3182 3183 3184 3184 3185 3185 3186 3186 3186 3187 3187 3187 3187 3186 3186 3186 3185 3185 3185 3185 3184 3184 3183 3183 3182 3181 3181 3180 3180 3180 3180 3180 3181 3181 3180 3179 3179 3178 3178 3178 3178 3178 3178 3177 3177 3176 3176 3175 3175 3174 3174 3173 3172 3172 3172 3171 3171 3170 3169 3168 3167 3166 3165
3161 3162 3163 3164 3165 3166 3166 3167 3168 3169 3170 3171 3172 3173 3174 3175 3175 3176 3177 3178 3180 3181 3182 3183 3183 3184 3184 3185 3185 3186 3186 3186 3186 3186 3186 3186 3185 3185 3185 3184 3184 3184 3183 3183 3182 3182 3181 3180 3179 3179 3179 3179 3178 3178 3178 3178 3178 3178 3177 3177 3176 3176 3176 3176 3176 3176 3175 3175 3174 3173 3172 3172 3172 3171 3171 3170 3170 3170 3169 3169 3168 3167 3166 3165 3164
3160 3161 3162 3163 3164 3165 3166 3166 3167 3168 3169 3170 3171 3172 3173 3174 3175 3176 3177 3178 3179 3180 3181 3182 3183 3183 3184 3184 3185 3185 3185 3186 3186 3185 3185 3185 3185 3184 3184 3183 3183 3182 3182 3182 3181 3180 3180 3179 3178 3177 3177 3177 3177 3176 3176 3176 3176 3176 3175 3175 3174 3174 3173 3173 3174 3173 3173 3172 3172 3171 3170 3170 3170 3169 3169 3169 3168 3168 3168 3167 3166 3165 3165 3164 3163
3160 3161 3162 3163 3164 3164 3165 3166 3167 3168 3169 3170 3171 3172 3172 3173 3174 3176 3177 3178 3179 3180 3181 3182 3183 3183 3183 3184 3185 3185 3185 3185 3185 3185 3184 3184 3184 3183 3183 3182 3182 3181 3181 3180 3180 3179 3178 3177 3177 3176 3176 3175 3175 3174 3174 3174 3173 3173 3173 3172 3172 3171 3171 3171 3171 3171 3171 3170 3169 3169 3168 3168 3168 3167 3167 3167 3167 3166 3166 3165 3165 3164 3163 3163 3162
3160 3160 3161 3162 3163 3164 3165 3166 3167 3168 3169 3170 3171 3171 3172 3173 3174 3176 3177 3178 3179 3180 3181 3182 3182 3183 3183 3184 3184 3184 3184 3184 3184 3184 3184 3183 3183 3183 3182 3182 3181 3180 3180 3179 3178 3177 3177 3176 3175 3175 3174 3174 3173 3173 3172 3172 3171 3171 3171 3170 3170 3169 3169 3169 3169 3169 3169 3168 3167 3166 3165 3165 3165 3165 3165 3165 3165 3164 3164 3164 3163 3163 3162 3162 3161
3159 3160 3161 3162 3163 3164 3165 3166 3167 3168 3169 3170 3171 3171 3172 3173 3175 3176 3177 3178 3179 3180 3181 3181 3182 3182 3183 3183 3184 3184 3184 3183 3183 3183 3183 3183 3182 3182 3181 3181 3180 3179 3179 3178 3177 3176 3176 3175 3174 3173 3172 3172 3172 3171 3171 3170 3170 3169 3169 3169 3168 3167 3167 3166 3166 3166 3166 3166 3165 3164 3163 3163 3162 3163 3163 3163 3163 3162 3162 3162 3162 3161 3161 3160 3160
3158 3159 3160 3161 3162 3163 3164 3165 3166 3167 3168 3169 3170 3171 3172 3173 3174 3175 3177 3177 3178 3179 3180 3181 3181 3182 3182 3183 3183 3183 3183 3183 3183 3182 3182 3182 3181 3181 3180 3180 3179 3178 3178 3177 3176 3175 3175 3174 3173 3172 3171 3170 3170 3169 3169 3169 3168 3168 3167 3167 3166 3166 3165 3165 3164 3164 3164 3164 3163 3162 3162 3161 3160 3160 3161 3161 3161 3160 3160 3160 3160 3159 3159 3159 3158
3158 3159 3160 3161 3162 3163 3164 3165 3166 3167 3168 3169 3170 3171 3172 3173 3174 3175 3176 3177 3178 3179 3180 3180 3181 3181 3182 3182 3182 3182 3182 3182 3182 3182 3182 3181 3181 3180 3179 3179 3178 3177 3177 3176 3175 3174 3173 3173 3172 3171 3170 3169 3168 3167 3167 3167 3166 3166 3166 3166 3165 3164 3164 3163 3162 3162 3161 3161 3161 3160 3160 3159 3158 3158 3158 3158 3158 3158 3158 3158 3158 3158 3157 3157 3156
3157 3158 3159 3160 3162 3163 3163 3164 3165 3166 3167 3168 3169 3171 3172 3173 3174 3175 3176 3177 3178 3179 3179 3180 3180 3181 3181 3181 3181 3181 3181 3182 3182 3181 3181 3180 3180 3179 3178 3178 3177 3176 3175 3175 3174 3173 3173 3172 3171 3170 3169 3168 3167 3166 3165 3165 3164 3164 3164 3164 3163 3163 3162 3161 3160 3159 3159 3159 3158 3158 3157 3157 3157 3156 3156 3155 3155 3156 3156 3156 3156 3156 3155 3155 3155
3157 3158 3159 3160 3161 3162 3163 3163 3164 3166 3167 3168 3169 3170 3171 3172 3174 3175 3176 3176 3177 3178 3179 3179 3180 3180 3180 3180 3180 3180 3181 3181 3181 3180 3180 3179 3179 3178 3177 3177 3176 3175 3174 3174 3173 3172 3172 3171 3170 3169 3168 3167 3166 3165 3164 3164 3163 3163 3162 3162 3161 3161 3160 3159 3158 3157 3157 3157 3156 3156 3155 3155 3155 3154 3154 3154 3153 3153 3154 3154 3153 3153 3154 3153 3153
3157 3158 3159 3160 3161 3161 3162 3163 3164 3165 3166 3167 3168 3169 3171 3172 3173 3174 3175 3176 3177 3178 3178 3179 3179 3179 3179 3179 3180 3180 3180 3180 3180 3180 3179 3178 3178 3177 3177 3176 3175 3174 3173 3172 3172 3171 3171 3170 3169 3168 3167 3166 3165 3164 3163 3163 3162 3161 3161 3160 3160 3159 3158 3157 3156 3155 3155 3154 3154 3153 3153 3152 3152 3152 3152 3152 3152 3151 3151 3151 3151 3151 3152 3152 3151
3157 3159 3160 3160 3161 3161 3162 3163 3163 3164 3165 3167 3168 3169 3170 3171 3172 3173 3174 3175 3176 3177 3178 3178 3178 3179 3179 3179 3179 3179 3179 3179 3179 3179 3178 3178 3177 3176 3175 3175 3174 3173 3172 3171 3171 3170 3169 3169 3168 3166 3165 3165 3164 3163 3162 3161 3160 3160 3159 3158 3158 3157 3156 3155 3154 3153 3153 3152 3152 3151 3150 3150 3150 3150 3150 3150 3150 3149 3148 3148 3149 3149 3149 3150 3150
3157 3159 3160 3161 3161 3161 3162 3163 3163 3164 3165 3166 3168 3169 3170 3170 3171 3173 3174 3175 3176 3177 3177 3177 3178 3178 3178 3178 3178 3178 3178 3179 3178 3178 3177 3177 3176 3175 3174 3174 3173 3172 3171 3171 3170 3169 3168 3167 3166 3165 3164 3163 3163 3162 3161 3160 3159 3158 3158 3157 3156 3155 3154 3154 3153 3152 3151 3150 3150 3149 3149 3148 3148 3148 3148 3147 3147 3147 3147 3146 3147 3147 3147 3148 3148
3156 3158 3160 3161 3161 3161 3162 3162 3163 3163 3165 3166 3167 3168 3169 3170 3171 3172 3173 3174 3175 3176 3176 3176 3177 3177 3177 3177 3177 3178 3178 3178 3177 3177 3176 3176 3175 3174 3173 3173 3172 3171 3170 3170 3169 3168 3167 3166 3165 3164 3163 3162 3161 3161 3160 3159 3158 3157 3156 3155 3154 3153 3152 3152 3151 3150 3149 3148 3148 3147 3147 3147 3146 3146 3145 3145 3145 3145 3145 3145 3145 3145 3145 3145 3145
3154 3157 3159 3160 3161 3161 3161 3162 3162 3163 3164 3165 3166 3167 3168 3169 3170 3171 3172 3173 3174 3174 3175 3175 3176 3176 3176 3177 3177 3177 3177 3176 3176 3176 3175 3174 3174 3173 3172 3171 3171 3170 3169 3168 3168 3167 3166 3165 3164 3163 3162 3161 3160 3159 3158 3158 3157 3156 3155 3154 3153 3152 3151 3150 3149 3148 3147 3147 3146 3145 3145 3145 3145 3144 3144 3143 3143 3143 3143 3143 3143 3143 3143 3142 3143
3153 3155 3157 3158 3159 3160 3161 3161 3162 3162 3163 3164 3165 3166 3167 3168 3169 3170 3171 3172 3172 3173 3174 3174 3174 3175 3175 3176 3176 3176 3176 3175 3175 3174 3174 3173 3172 3172 3171 3170 3170 3169 3168 3167 3166 3165 3164 3164 3163 3162 3161 3160 3159 3158 3157 3156 3156 3155 3153 3153 3152 3151 3150 3148 3147 3147 3146 3145 3144 3144 3143 3143 3142 3142 3142 3141 3141 3141 3141 3140 3140 3140 3140 3140 3141
3153 3154 3156 3157 3158 3159 3160 3160 3161 3161 3162 3162 3163 3164 3166 3167 3168 3169 3170 3171 3171 3172 3173 3173 3173 3174 3174 3175 3175 3175 3174 3174 3173 3173 3172 3172 3171 3170 3170 3169 3168 3168 3167 3166 3165 3164 3163 3162 3161 3161 3160 3159 3158 3157 3156 3155 3154 3153 3152 3151 3151 3150 3149 3147 3146 3145 3144 3143 3143 3142 3141 3141 3140 3140 3139 3139 3139 3139 3138 3138 3137 3137 3138 3138 3138
3151 3153 3154 3156 3157 3158 3158 3159 3159 3160 3160 3161 3162 3163 3164 3165 3167 3168 3169 3170 3170 3171 3172 3172 3173 3173 3173 3174 3174 3174 3173 3173 3172 3172 3171 3171 3170 3169 3168 3168 3167 3167 3166 3165 3164 3163 3162 3161 3160 3159 3158 3157 3157 3156 3155 3154 3153 3152 3151 3150 3149 3148 3148 3147 3145 3144 3143 3142 3141 3141 3140 3139 3138 3137 3137 3136 3136 3136 3136 3135 3135 3135 3135 3135 3136
3149 3151 3153 3154 3155 3156 3157 3157 3157 3158 3158 3159 3160 3161 3163 3165 3166 3167 3168 3169 3169 3170 3171 3171 3172 3172 3173 3173 3173 3173 3172 3172 3171 3171 3170 3169 3168 3168 3167 3166 3166 3165 3165 3164 3163 3162 3161 3160 3158 3158 3157 3156 3155 3154 3153 3152 3151 3150 3149 3148 3147 3147 3146 3145 3144 3143 3142 3140 3139 3138 3138 3138 3136 3135 3135 3134 3134 3133 3133 3133 3132 3133 3133 3133 3133
3148 3150 3151 3153 3154 3154 3154 3155 3155 3156 3156 3157 3158 3159 3162 3164 3165 3166 3167 3168 3169 3169 3170 3170 3171 3171 3171 3172 3172 3171 3171 3171 3170 3170 3169 3168 3167 3166 3166 3165 3165 3164 3163 3163 3162 3161 3160 3158 3157 3156 3155 3155 3154 3153 3152 3151 3149 3148 3147 3146 3145 3144 3144 3143 3142 3141 3140 3138 3137 3136 3136 3135 3134 3133 3133 3132 3131 3130 3130 3130 3130 3130 3130 3130 3130
3147 3149 3150 3152 3153 3152 3152 3153 3153 3154 3154 3155 3158 3160 3162 3163 3165 3166 3166 3167 3168 3168 3169 3170 3170 3170 3170 3170 3170 3170 3170 3169 3169 3168 3167 3166 3166 3165 3164 3164 3163 3163 3162 3161 3161 3159 3158 3157 3156 3155 3154 3154 3152 3151 3150 3149 3147 3146 3145 3144 3143 3142 3141 3140 3140 3139 3137 3136 3136 3135 3134 3132 3131 3131 3130 3130 3129 3127 3127 3126 3126 3126 3127 3127 3127
3146 3148 3149 3151 3151 3150 3150 3151 3152 3153 3154 3155 3158 3160 3161 3163 3164 3165 3165 3166 3167 3168 3168 3169 3169 3169 3169 3169 3169 3169 3169 3168 3168 3167 3166 3165 3165 3164 3163 3162 3162 3161 3160 3160 3159 3158 3157 3156 3155 3154 3153 3153 3151 3150 3149 3147 3146 3144 3143 3142 3141 3140 3139 3138 3137 3136 3135 3134 3133 3133 3132 3130 3129 3128 3127 3126 3125 3124 3123 3123 3122 3122 3123 3123 3123
3145 3147 3149 3150 3149 3149 3149 3150 3152 3154 3155 3156 3158 3160 3161 3162 3163 3163 3164 3165 3166 3167 3167 3168 3168 3168 3168 3168 3168 3167 3167 3167 3166 3165 3165 3164 3163 3163 3162 3161 3160 3160 3159 3158 3157 3157 3156 3155 3154 3153 3152 3151 3150 3149 3147 3146 3144 3143 3141 3140 3139 3138 3136 3136 3134 3133 3133 3132 3130 3130 3130 3128 3127 3125 3124 3122 3121 3120 3119 3119 3118 3119 3119 3119 3120
3144 3146 3147 3148 3149 3149 3150 3151 3152 3154 3155 3157 3158 3159 3160 3161 3161 3163 3163 3164 3165 3166 3166 3166 3166 3166 3166 3166 3166 3165 3165 3165 3164 3164 3163 3162 3162 3161 3160 3160 3159 3158 3158 3157 3156 3155 3154 3153 3152 3151 3150 3149 3148 3147 3145 3144 3142 3141 3139 3138 3137 3135 3134 3133 3132 3131 3130 3129 3127 3126 3126 3125 3124 3123 3122 3119 3117 3116 3115 3115 3114 3114 3115 3115 3116